EW6866 Weather Reports


time (UTC)temp
C
wind
direction
speed
KPH
gust
KPH
rain 1hr
cm
rain 24hr
cm
rain mn
cm
humidity
%
barometer
mb
20260902120004 25 219 0.0 3.2 0.00 0.00 0.00 94 1016.2
20260902114504 24 118 0.0 1.6 0.00 0.00 0.00 95 1016.1
20260902113003 24 0 0.0 0.0 0.00 0.00 0.00 95 1015.9
20260902111504 23 0 0.0 0.0 0.00 0.00 0.00 95 1015.8
20260902110005 23 0 0.0 0.0 0.00 0.00 0.00 95 1015.8
20260902104504 23 119 0.0 1.6 0.00 0.00 0.00 95 1015.7
20260902103024 23 0 0.0 0.0 0.00 0.00 0.00 94 1015.7
20260902101504 23 0 0.0 0.0 0.00 0.00 0.00 94 1015.8
20260902100004 23 0 0.0 0.0 0.00 0.00 0.00 94 1015.7
20260902094503 24 0 0.0 0.0 0.00 0.00 0.00 94 1015.6
20260902093003 24 0 0.0 0.0 0.00 0.00 0.00 94 1015.7
20260902091504 24 0 0.0 0.0 0.00 0.00 0.00 94 1015.6
20260902090025 24 0 0.0 0.0 0.00 0.00 0.00 94 1015.5
20260902084503 24 0 0.0 0.0 0.00 0.00 0.00 93 1015.5
20260902083003 24 0 0.0 0.0 0.00 0.00 0.00 93 1015.5
20260902081504 24 0 0.0 0.0 0.00 0.00 0.00 93 1015.5
20260902080003 24 0 0.0 0.0 0.00 0.00 0.00 93 1015.4
20260902074505 24 0 0.0 0.0 0.00 0.00 0.00 92 1015.5
20260902073005 24 0 0.0 0.0 0.00 0.00 0.00 92 1015.7
20260902071505 24 143 0.0 1.6 0.00 0.00 0.00 91 1015.7
20260902070007 25 0 0.0 0.0 0.00 0.00 0.00 90 1015.8
20260902064505 25 0 0.0 0.0 0.00 0.00 0.00 90 1015.9
20260902063005 25 0 0.0 0.0 0.00 0.00 0.00 89 1015.9
20260902061505 25 136 0.0 4.8 0.00 0.00 0.00 89 1016.0
20260902060005 25 125 0.0 1.6 0.00 0.00 0.00 89 1016.1
20260902054505 25 0 0.0 0.0 0.00 0.00 0.00 89 1016.2
20260902053026 25 126 0.0 1.6 0.00 0.00 0.00 89 1016.1
20260902051505 25 0 0.0 0.0 0.00 0.00 0.00 88 1016.2
20260902050007 25 134 0.0 1.6 0.00 0.00 0.00 88 1016.3
20260902044505 25 0 0.0 0.0 0.00 0.00 0.00 88 1016.1
20260902043026 26 228 0.0 1.6 0.00 0.00 0.00 87 1015.8
20260902041505 26 0 0.0 0.0 0.00 0.00 0.00 86 1015.6
20260902040006 26 229 0.0 1.6 0.00 0.00 0.00 86 1015.4
20260902034504 26 139 0.0 3.2 0.00 0.00 0.00 85 1015.5
20260902033026 26 131 0.0 3.2 0.00 0.00 0.00 86 1015.6
20260902031526 27 151 0.0 3.2 0.00 0.00 0.00 86 1015.7
20260902030005 27 210 0.0 1.6 0.00 0.00 0.00 86 1015.5
20260902024505 27 207 0.0 4.8 0.00 0.00 0.00 86 1015.4
20260902023026 27 169 0.0 6.4 0.00 0.00 0.00 86 1015.4
20260902021505 27 0 0.0 0.0 0.00 0.00 0.00 87 1015.4
20260902020005 27 240 0.0 3.2 0.00 0.00 0.00 87 1015.1
20260902014525 27 215 0.0 4.8 0.00 0.00 0.00 87 1014.8
20260902013006 28 243 0.0 6.4 0.00 0.00 0.00 86 1014.7
20260902011526 28 222 0.0 4.8 0.00 0.00 0.00 87 1014.6
20260902010005 28 176 0.0 4.8 0.00 0.00 0.00 86 1014.7
20260902004505 28 260 0.0 3.2 0.00 0.00 0.00 85 1014.5
20260902003004 28 266 0.0 1.6 0.00 0.00 0.00 84 1014.6
20260902001505 29 253 0.0 8.0 0.00 0.00 0.00 82 1014.4
20260902000026 29 253 0.0 4.8 0.00 0.00 0.00 81 1014.4
20260901234505 30 260 0.0 3.2 0.00 0.00 0.00 79 1014.4
20260901233004 30 245 1.6 8.0 0.00 0.00 0.00 78 1014.4
20260901231526 31 194 0.0 6.4 0.00 0.00 0.00 77 1014.5
20260901230005 31 150 0.0 1.6 0.00 0.00 0.00 76 1014.7
20260901224526 31 281 0.0 1.6 0.00 0.00 0.00 76 1014.9
20260901223006 32 272 0.0 1.6 0.00 0.00 0.00 75 1014.8
20260901221504 32 229 0.0 1.6 0.00 0.00 0.00 74 1014.7
20260901220004 32 210 0.0 1.6 0.00 0.00 0.00 72 1014.8
20260901214505 33 204 0.0 1.6 0.00 0.00 0.00 68 1014.8
20260901213004 33 166 0.0 3.2 0.00 0.00 0.00 64 1014.7
20260901211504 34 237 0.0 6.4 0.00 0.00 0.00 62 1014.7
20260901210004 35 160 1.6 4.8 0.00 0.00 0.00 61 1014.6
20260901204504 35 253 0.0 8.0 0.00 0.00 0.00 61 1014.7
20260901203004 35 218 0.0 4.8 0.00 0.00 0.00 59 1014.8
20260901201504 35 204 0.0 3.2 0.00 0.00 0.00 58 1014.9
20260901200004 35 262 1.6 6.4 0.00 0.00 0.00 60 1015.0
20260901194504 35 158 0.0 8.0 0.00 0.00 0.00 60 1015.1
20260901193005 35 167 0.0 4.8 0.00 0.00 0.00 58 1015.2
20260901191504 35 175 1.6 8.0 0.00 0.00 0.00 60 1015.3
20260901190004 35 178 1.6 8.0 0.00 0.00 0.00 60 1015.3
20260901184505 35 156 0.0 8.0 0.00 0.00 0.00 60 1015.4
20260901183004 35 214 0.0 8.0 0.00 0.00 0.00 63 1015.6
20260901181504 35 202 1.6 8.0 0.00 0.00 0.00 63 1015.5
20260901180005 35 227 0.0 3.2 0.00 0.00 0.00 63 1015.7
20260901174525 34 231 1.6 6.4 0.00 0.00 0.00 64 1015.7
20260901173004 34 185 1.6 8.0 0.00 0.00 0.00 64 1015.8
20260901171504 34 158 1.6 8.0 0.00 0.00 0.00 63 1015.9
20260901170004 34 166 0.0 6.4 0.00 0.00 0.00 65 1016.0
20260901164504 33 128 0.0 1.6 0.00 0.00 0.00 67 1016.1
20260901163004 33 167 1.6 3.2 0.00 0.00 0.00 68 1016.3
20260901161504 33 141 0.0 3.2 0.00 0.00 0.00 66 1016.6
20260901160004 33 139 0.0 4.8 0.00 0.00 0.00 66 1016.8
20260901154504 33 167 0.0 6.4 0.00 0.00 0.00 70 1017.0
20260901153004 32 138 0.0 6.4 0.00 0.00 0.00 70 1017.2
20260901151504 32 156 0.0 8.0 0.00 0.00 0.00 73 1017.2
20260901150004 31 169 0.0 6.4 0.00 0.00 0.00 74 1017.3
20260901144504 30 148 1.6 6.4 0.00 0.00 0.00 75 1017.2
20260901143004 30 149 0.0 3.2 0.00 0.00 0.00 79 1017.2
20260901141504 29 157 0.0 4.8 0.00 0.00 0.00 81 1017.2
20260901140004 28 164 0.0 6.4 0.00 0.00 0.00 83 1017.1
20260901134504 28 156 0.0 4.8 0.00 0.00 0.00 85 1017.3
20260901133004 27 175 0.0 3.2 0.00 0.00 0.00 87 1017.3
20260901131525 27 183 0.0 6.4 0.00 0.00 0.00 89 1017.4
20260901130003 26 157 0.0 1.6 0.00 0.00 0.00 92 1017.4
20260901124525 26 187 0.0 3.2 0.00 0.00 0.00 95 1017.3
20260901123004 25 157 0.0 1.6 0.00 0.00 0.00 98 1017.2
20260901121504 25 132 0.0 1.6 0.00 0.00 0.00 99 1017.2